Weather History for Westminster, MD

Change the Weather History Date:

Saturday, October 1, 2011

  Actual Average (KTHV) Record (KTHV)
Temperature  
Mean Temperature 54 °F -  
Max Temperature 57 °F 0 °F 81 °F (2002)
Min Temperature 50 °F - 34 °F (1997)
Degree Days  
Heating Degree Days 11    
Growing Degree Days 4 (Base 50)    
Moisture  
Dew Point 46 °F    
Average Humidity 75    
Maximum Humidity 87    
Minimum Humidity 71    
Precipitation  
Precipitation 0.00 in - - ()
Sea Level Pressure  
Sea Level Pressure 29.74 in    
Wind  
Wind Speed 8 mph (WNW)    
Max Wind Speed 12 mph    
Max Gust Speed 17 mph    
Visibility 10 miles    
Events Rain    
Averages and records for this station are not official NWS values.
T = Trace of Precipitation, MM = Missing Value Source: NWS Daily Summary

Daily Weather History Graph

Daily Weather History Graph

Search for Another Location

Airport:

Trip Planner

Search our weather history database for the weather conditions in past years. The results will help you decide how hot, cold, wet, or windy it might be!

Date:

Astronomy

Oct. 01, 2011 Rise Set
Actual Time 7:03 AM EDT 6:50 PM EDT
Civil Twilight 6:37 AM EDT 7:17 PM EDT
Nautical Twilight 6:05 AM EDT 7:48 PM EDT
Astronomical Twilight 5:34 AM EDT 8:20 PM EDT
Moon 12:06 PM EDT (10/1) 9:47 PM EDT (10/1)
Length of Visible Light 12h 40m
Length of Day
11h 47m
Waxing Crescent, 24% of the Moon is Illuminated
Oct 1
Waxing Crescent
Oct 3
First Quarter
Oct 11
Full
Oct 19
Last Quarter
Oct 26
New

Hourly Weather History & Observations

Time (EDT) Temp. Windchill Dew Point Humidity Pressure Visibility Wind Dir Wind Speed Gust Speed Precip Events Conditions
12:04 AM 57.2 °F - 48.2 °F 72% 29.72 in 10.0 mi West 6.9 mph - N/A   Scattered Clouds
12:16 AM 57.2 °F - 48.2 °F 72% 29.72 in 10.0 mi West 8.1 mph - N/A   Scattered Clouds
12:28 AM 57.2 °F - 48.2 °F 72% 29.72 in 10.0 mi West 9.2 mph - N/A   Clear
12:37 AM 57.2 °F - 48.2 °F 72% 29.71 in 10.0 mi WNW 5.8 mph - N/A   Clear
12:49 AM 57.2 °F - 48.2 °F 72% 29.71 in 10.0 mi West 8.1 mph - N/A   Clear
1:01 AM 57.2 °F - 48.2 °F 72% 29.70 in 10.0 mi WNW 6.9 mph - N/A   Clear
1:13 AM 57.2 °F - 48.2 °F 72% 29.71 in 10.0 mi West 9.2 mph - N/A   Clear
1:25 AM 57.2 °F - 48.2 °F 72% 29.72 in 10.0 mi West 6.9 mph - N/A   Scattered Clouds
1:34 AM 57.2 °F - 48.2 °F 72% 29.71 in 10.0 mi WNW 8.1 mph - N/A   Scattered Clouds
1:46 AM 57.2 °F - 50.0 °F 77% 29.71 in 10.0 mi WNW 5.8 mph - N/A   Scattered Clouds
1:55 AM 55.4 °F - 50.0 °F 82% 29.73 in 10.0 mi West 5.8 mph - N/A   Mostly Cloudy
2:10 AM 55.4 °F - 50.0 °F 82% 29.72 in 10.0 mi WNW 8.1 mph - N/A   Mostly Cloudy
2:22 AM 55.4 °F - 50.0 °F 82% 29.72 in 10.0 mi WNW 8.1 mph - N/A   Overcast
2:31 AM 55.4 °F - 50.0 °F 82% 29.71 in 10.0 mi WNW 8.1 mph - N/A   Overcast
2:43 AM 55.4 °F - 48.2 °F 77% 29.71 in 10.0 mi WNW 11.5 mph - N/A   Overcast
2:55 AM 55.4 °F - 48.2 °F 77% 29.72 in 10.0 mi WNW 11.5 mph - N/A   Overcast
3:07 AM 55.4 °F - 46.4 °F 72% 29.71 in 10.0 mi WNW 9.2 mph - N/A   Overcast
3:16 AM 55.4 °F - 46.4 °F 72% 29.71 in 10.0 mi NW 10.4 mph 16.1 mph N/A   Overcast
3:28 AM 55.4 °F - 46.4 °F 72% 29.71 in 10.0 mi WNW 9.2 mph 16.1 mph N/A   Overcast
3:40 AM 55.4 °F - 46.4 °F 72% 29.71 in 10.0 mi WNW 9.2 mph 17.3 mph N/A   Overcast
3:52 AM 53.6 °F - 46.4 °F 77% 29.71 in 10.0 mi NW 8.1 mph - N/A   Overcast
4:01 AM 53.6 °F - 46.4 °F 77% 29.72 in 10.0 mi NW 5.8 mph - N/A   Mostly Cloudy
4:13 AM 53.6 °F - 46.4 °F 77% 29.72 in 10.0 mi NW 9.2 mph - N/A   Overcast
4:25 AM 53.6 °F - 44.6 °F 72% 29.72 in 10.0 mi NW 8.1 mph 17.3 mph N/A   Overcast
4:37 AM 53.6 °F - 44.6 °F 72% 29.72 in 10.0 mi NW 10.4 mph - N/A   Overcast
4:49 AM 53.6 °F - 44.6 °F 72% 29.72 in 10.0 mi NW 8.1 mph - N/A   Overcast
4:58 AM 53.6 °F - 44.6 °F 72% 29.73 in 10.0 mi NW 8.1 mph - N/A   Overcast
5:10 AM 53.6 °F - 44.6 °F 72% 29.73 in 10.0 mi NW 9.2 mph 16.1 mph N/A   Overcast
5:16 AM 53.6 °F - 44.6 °F 72% 29.73 in 10.0 mi NNW 5.8 mph - N/A   Overcast
5:34 AM 53.6 °F - 44.6 °F 72% 29.73 in 10.0 mi WNW 6.9 mph - N/A   Overcast
5:46 AM 53.6 °F - 44.6 °F 72% 29.74 in 10.0 mi WNW 5.8 mph - N/A   Overcast
5:55 AM 53.6 °F - 44.6 °F 72% 29.74 in 10.0 mi WNW 8.1 mph - N/A   Overcast
6:07 AM 53.6 °F - 44.6 °F 72% 29.74 in 10.0 mi NW 6.9 mph - N/A   Overcast
6:19 AM 53.6 °F - 44.6 °F 72% 29.74 in 10.0 mi WNW 6.9 mph - N/A   Overcast
6:31 AM 51.8 °F - 44.6 °F 76% 29.74 in 10.0 mi NW 8.1 mph - N/A   Overcast
6:40 AM 51.8 °F - 42.8 °F 71% 29.74 in 10.0 mi NW 9.2 mph - N/A   Overcast
6:52 AM 51.8 °F - 42.8 °F 71% 29.74 in 10.0 mi NW 10.4 mph 17.3 mph N/A   Overcast
7:28 AM 51.8 °F - 42.8 °F 71% 29.75 in 10.0 mi NW 8.1 mph - N/A   Overcast
7:40 AM 51.8 °F - 44.6 °F 76% 29.76 in 10.0 mi NW 9.2 mph 16.1 mph N/A   Overcast
7:52 AM 51.8 °F - 44.6 °F 76% 29.76 in 10.0 mi WNW 6.9 mph - N/A   Overcast
8:04 AM 51.8 °F - 42.8 °F 71% 29.76 in 10.0 mi WNW 6.9 mph - N/A   Overcast
8:13 AM 51.8 °F - 44.6 °F 76% 29.77 in 10.0 mi WNW 9.2 mph - N/A   Overcast
8:25 AM 51.8 °F - 44.6 °F 76% 29.77 in 10.0 mi WNW 10.4 mph - N/A   Overcast
8:37 AM 51.8 °F - 44.6 °F 76% 29.77 in 10.0 mi WNW 8.1 mph - N/A   Overcast
8:49 AM 51.8 °F - 44.6 °F 76% 29.77 in 10.0 mi WNW 10.4 mph - N/A   Overcast
8:58 AM 51.8 °F - 44.6 °F 76% 29.78 in 10.0 mi NW 8.1 mph - N/A   Overcast
9:10 AM 51.8 °F - 44.6 °F 76% 29.78 in 10.0 mi WNW 9.2 mph - N/A   Overcast
9:22 AM 51.8 °F - 44.6 °F 76% 29.78 in 10.0 mi WNW 10.4 mph - N/A   Overcast
9:34 AM 51.8 °F - 44.6 °F 76% 29.79 in 10.0 mi WNW 8.1 mph 16.1 mph N/A   Overcast
9:46 AM 51.8 °F - 44.6 °F 76% 29.79 in 10.0 mi WNW 10.4 mph - N/A   Overcast
9:55 AM 51.8 °F - 44.6 °F 76% 29.79 in 10.0 mi WNW 9.2 mph - N/A   Overcast
10:07 AM 51.8 °F - 46.4 °F 82% 29.79 in 5.0 mi WNW 9.2 mph - N/A   Haze
10:19 AM 51.8 °F - 46.4 °F 82% 29.80 in 4.0 mi West 8.1 mph - N/A Rain Rain
10:31 AM 50.0 °F - 46.4 °F 87% 29.80 in 5.0 mi NW 6.9 mph - N/A   Light Drizzle
10:40 AM 50.0 °F - 46.4 °F 87% 29.80 in 10.0 mi WNW 9.2 mph - N/A   Light Drizzle
10:52 AM 50.0 °F - 46.4 °F 87% 29.80 in 10.0 mi WNW 9.2 mph - N/A   Overcast
11:04 AM 50.0 °F - 44.6 °F 82% 29.81 in 10.0 mi WNW 6.9 mph - N/A   Overcast
11:16 AM 50.0 °F - 44.6 °F 82% 29.81 in 10.0 mi WNW 6.9 mph - N/A   Overcast
11:25 AM 51.8 °F - 44.6 °F 76% 29.81 in 10.0 mi NW 8.1 mph - N/A   Overcast
11:37 AM 51.8 °F - 44.6 °F 76% 29.81 in 10.0 mi WNW 6.9 mph - N/A   Overcast
11:49 AM 51.8 °F - 44.6 °F 76% 29.81 in 10.0 mi NW 9.2 mph - N/A   Overcast
12:01 PM 51.8 °F - 44.6 °F 76% 29.81 in 10.0 mi WNW 10.4 mph - N/A   Overcast
12:13 PM 51.8 °F - 44.6 °F 76% 29.81 in 10.0 mi WNW 9.2 mph - N/A   Overcast
12:25 PM 51.8 °F - 44.6 °F 76% 29.81 in 10.0 mi WNW 10.4 mph 16.1 mph N/A   Overcast
12:37 PM 51.8 °F - 46.4 °F 82% 29.81 in 10.0 mi NW 8.1 mph - N/A   Overcast
12:49 PM 51.8 °F - 46.4 °F 82% 29.80 in 10.0 mi WNW 11.5 mph 17.3 mph N/A   Overcast
12:58 PM 51.8 °F - 46.4 °F 82% 29.80 in 7.0 mi WNW 9.2 mph - N/A   Overcast
1:10 PM 51.8 °F - 46.4 °F 82% 29.80 in 10.0 mi West 11.5 mph 16.1 mph N/A   Overcast
1:22 PM 51.8 °F - 46.4 °F 82% 29.80 in 7.0 mi WNW 10.4 mph - N/A   Overcast
1:34 PM 51.8 °F - 46.4 °F 82% 29.79 in 5.0 mi WNW 10.4 mph - N/A   Haze
1:43 PM 51.8 °F - 46.4 °F 82% 29.79 in 4.0 mi West 12.7 mph 17.3 mph N/A   Haze
1:55 PM 51.8 °F - 46.4 °F 82% 29.78 in 4.0 mi West 8.1 mph - N/A   Overcast
2:07 PM 51.8 °F - 46.4 °F 82% 29.78 in 10.0 mi WNW 9.2 mph - N/A   Overcast
2:19 PM 51.8 °F - 46.4 °F 82% 29.78 in 10.0 mi West 9.2 mph - N/A   Overcast
2:28 PM 51.8 °F - 46.4 °F 82% 29.78 in 10.0 mi West 9.2 mph - N/A   Overcast
2:37 PM 51.8 °F - 46.4 °F 82% 29.78 in 10.0 mi WNW 9.2 mph - N/A   Overcast
3:04 PM 51.8 °F - 46.4 °F 82% 29.78 in 10.0 mi West 8.1 mph - N/A   Overcast
3:16 PM 51.8 °F - 46.4 °F 82% 29.78 in 10.0 mi West 10.4 mph - N/A   Overcast
3:25 PM 51.8 °F - 46.4 °F 82% 29.79 in 10.0 mi West 9.2 mph - N/A   Overcast
3:37 PM 51.8 °F - 46.4 °F 82% 29.79 in 10.0 mi West 9.2 mph - N/A   Overcast
3:49 PM 51.8 °F - 46.4 °F 82% 29.79 in 10.0 mi WNW 6.9 mph - N/A   Overcast
4:01 PM 51.8 °F - 46.4 °F 82% 29.79 in 10.0 mi WNW 8.1 mph - N/A Rain Light Rain
4:10 PM 51.8 °F - 46.4 °F 82% 29.79 in 4.0 mi WNW 10.4 mph 19.6 mph N/A Rain Light Rain
4:22 PM 50.0 °F - 46.4 °F 87% 29.79 in 3.0 mi WNW 9.2 mph - N/A   Heavy Drizzle
4:34 PM 50.0 °F - 46.4 °F 87% 29.79 in 2.5 mi WNW 10.4 mph - 0.01 in Rain Rain
4:46 PM 50.0 °F - 46.4 °F 87% 29.79 in 3.0 mi WNW 10.4 mph - N/A Rain Rain
4:52 PM 50.0 °F - 46.4 °F 87% 29.79 in 2.5 mi West 11.5 mph - 0.01 in Rain Heavy Rain
5:07 PM 50.0 °F - 46.4 °F 87% 29.79 in 5.0 mi West 10.4 mph - 0.01 in   Drizzle
5:19 PM 50.0 °F - 46.4 °F 87% 29.80 in 5.0 mi West 6.9 mph - 0.01 in   Drizzle
5:31 PM 50.0 °F - 46.4 °F 87% 29.79 in 5.0 mi West 8.1 mph - 0.01 in   Drizzle
5:40 PM 48.2 °F - 46.4 °F 93% 29.80 in 7.0 mi West 9.2 mph - 0.01 in   Drizzle
5:52 PM 48.2 °F - 46.4 °F 93% 29.80 in 3.0 mi West 6.9 mph - 0.01 in   Heavy Drizzle
6:04 PM 48.2 °F - 46.4 °F 93% 29.80 in 2.5 mi West 8.1 mph - 0.03 in Rain Heavy Rain
6:16 PM 48.2 °F - 46.4 °F 93% 29.80 in 3.0 mi West 8.1 mph - 0.04 in Rain Rain
6:25 PM 48.2 °F - 46.4 °F 93% 29.81 in 3.0 mi West 6.9 mph - 0.05 in Rain Rain
6:37 PM 48.2 °F - 46.4 °F 93% 29.81 in 7.0 mi West 9.2 mph - 0.07 in Rain Rain
6:49 PM 48.2 °F - 46.4 °F 93% 29.81 in 7.0 mi WNW 8.1 mph - 0.01 in Rain Rain
7:01 PM 48.2 °F - 46.4 °F 93% 29.81 in 5.0 mi WNW 8.1 mph - 0.05 in Rain Rain
7:13 PM 48.2 °F - 46.4 °F 93% 29.80 in 10.0 mi WNW 8.1 mph - 0.08 in Rain Rain
7:22 PM 48.2 °F - 46.4 °F 93% 29.80 in 10.0 mi WNW 8.1 mph - 0.09 in Rain Rain
7:34 PM 48.2 °F - 46.4 °F 93% 29.80 in 7.0 mi WNW 11.5 mph - 0.09 in Rain Rain
7:46 PM 48.2 °F - 46.4 °F 93% 29.80 in 5.0 mi WNW 13.8 mph - N/A   Drizzle
7:58 PM 48.2 °F - 46.4 °F 93% 29.81 in 10.0 mi NW 10.4 mph - 0.01 in   Drizzle
8:07 PM 48.2 °F - 46.4 °F 93% 29.81 in 7.0 mi NW 8.1 mph - 0.01 in Rain Light Rain
8:19 PM 48.2 °F - 46.4 °F 93% 29.81 in 10.0 mi NW 6.9 mph - 0.02 in Rain Heavy Rain
8:31 PM 48.2 °F - 46.4 °F 93% 29.81 in 7.0 mi NNW 5.8 mph - 0.03 in   Heavy Drizzle
8:46 PM 48.2 °F - 46.4 °F 93% 29.81 in 10.0 mi NW 6.9 mph - N/A Rain Rain
8:55 PM 48.2 °F - 46.4 °F 93% 29.81 in 10.0 mi NNW 6.9 mph - 0.01 in Rain Rain
9:07 PM 48.2 °F - 46.4 °F 93% 29.81 in 10.0 mi NNW 5.8 mph - 0.02 in Rain Rain
9:19 PM 48.2 °F - 46.4 °F 93% 29.81 in 7.0 mi NNW 6.9 mph - 0.03 in Rain Light Rain
9:31 PM 48.2 °F - 44.6 °F 87% 29.81 in 10.0 mi North 13.8 mph 19.6 mph 0.03 in Rain Rain
9:40 PM 48.2 °F - 44.6 °F 87% 29.81 in 10.0 mi North 8.1 mph - 0.04 in Rain Light Rain
9:52 PM 48.2 °F - 44.6 °F 87% 29.80 in 10.0 mi North 10.4 mph 17.3 mph N/A Rain Light Rain
10:04 PM 48.2 °F - 44.6 °F 87% 29.81 in 10.0 mi North 9.2 mph 16.1 mph 0.01 in Rain Rain
10:16 PM 46.4 °F 41.1 °F 44.6 °F 93% 29.80 in 10.0 mi North 11.5 mph 18.4 mph 0.03 in Rain Rain
10:25 PM 46.4 °F 41.9 °F 44.6 °F 93% 29.80 in 7.0 mi NNW 9.2 mph - 0.04 in Rain Light Rain
10:37 PM 46.4 °F 41.9 °F 44.6 °F 93% 29.80 in 10.0 mi NNW 9.2 mph - 0.04 in Rain Light Rain
10:46 PM 46.4 °F 42.9 °F 44.6 °F 93% 29.79 in 10.0 mi NNW 6.9 mph - N/A Rain Rain
11:01 PM 46.4 °F 41.9 °F 44.6 °F 93% 29.79 in 5.0 mi NNW 9.2 mph - 0.02 in Rain Rain
11:13 PM 46.4 °F 41.9 °F 44.6 °F 93% 29.79 in 3.0 mi NNW 9.2 mph - 0.02 in Rain Heavy Rain
11:22 PM 46.4 °F 43.5 °F 44.6 °F 93% 29.79 in 3.0 mi NNW 5.8 mph - 0.03 in   Heavy Drizzle
11:34 PM 46.4 °F 42.9 °F 44.6 °F 93% 29.79 in 3.0 mi NNW 6.9 mph - 0.04 in Rain Heavy Rain
11:46 PM 46.4 °F 42.4 °F 44.6 °F 93% 29.79 in 3.0 mi North 8.1 mph - N/A Rain Heavy Rain
11:58 PM 46.4 °F 42.9 °F 44.6 °F 93% 29.78 in 3.0 mi North 6.9 mph - N/A Rain Light Rain